Weather in Antushevo

Russia / Vologda Oblast     59°54′06″N   37°40′25″E
temp.,
°C
wind,
m/s
gust,
m/s
humid.,
%
clouds,
%
prec.,
mm/h
press.,
hPa
HPBL,
m
4 march, thu
thu400:00−1wsw5129396 0.3 994636
03:00−1w5119598 1.1 993733
06:00−6wnw6149073 0.4 992612
09:00−5nnw7129286 0.8 996818
12:00−6nnw589099 0.1 998605
15:00−5nw488996 0.1 999594
18:00−9wnw369370 0.0 999106
21:00−12wnw239650 0.0 100022
5 march, fri
fri500:00−12wnw239774 0.0 100131
03:00−13wnw349781 0.1 100285
06:00−12nw369688 0.1 1003179
09:00−12nw369593 0.3 1005271
12:00−12nnw459499 0.1 1007394
15:00−11nw478586 0.1 1009847
18:00−14nw489198 0.1 1010215
21:00−18nw339754 0.1 101351
6 march, sat
sat600:00−19wnw239921 0.0 101424
03:00−18w239848 0.1 101540
06:00−16wsw3796100 0.2 1014168
09:00−13w369599 0.4 1014248
12:00−10wsw359497 0.1 1013339
15:00−7sw368898 0.1 1011699
18:00−9ssw389099 0.1 1008231
21:00−9ssw5138899 0.1 1004493
7 march, sun
sun700:00−8s71491100 0.2 997878
03:00−6s81592100 1.4 991918
06:00−4ssw71394100 1.1 986809
09:00−5wnw91294100 2.8 986820
12:00−8wnw5977100 0.8 988858
15:00−8nw3679100 0.8 989786
18:00−12nnw228722 0.0 99121
21:00−15wnw239211 0.0 99220
8 march, mon
mon800:00−14w499641 0.0 993206
03:00−11n5109569 0.3 996465
06:00−12n61194100 0.4 998619
09:00−12n71191100 0.8 1002723
12:00−14nnw71091100 0.1 1005614
15:00−13nnw61190100 0.2 1009695
18:00−14nnw61191100 0.1 1012617
21:00−17nnw5119399 0.1 1015483